Location: Cheverny
(47.5008°N, 1.4595°E)
Time: 01:47:31
(UTC+00:00)

Daily predictions for brighter satellites

Satellite Brightness Start Highest point End
(mag) Time Altitude Azimuth Time Altitude Azimuth Time Altitude Azimuth
Cosmos 2297 Rocket 3.5 00:04:14 10° NNW 00:09:26 36° NE 00:14:36 10° ESE
Cosmos 1782 3.3 00:07:35 10° N 00:11:08 45° ENE 00:11:51 40° ESE
NOSS 3-4 (A) 4.4 00:06:01 10° NW 00:12:32 43° WSW 00:15:34 31° SSW
NOSS 3-4 (C) 4.4 00:06:05 10° NW 00:12:37 43° WSW 00:15:40 31° SSW
SL-08 ROCKET BODY 4.3 00:11:57 36° S 00:14:36 88° W 00:20:36 10° N
BREEZE-M DEB (TANK) 3.8 00:11:45 10° W 00:15:47 81° N 00:31:27 10° E
Cosmos 1975 Rocket 4.4 00:14:30 23° WSW 00:16:10 30° WNW 00:20:03 10° N
Cosmos 1818 4.0 00:12:41 10° NW 00:17:51 45° WSW 00:19:10 38° SSW
Cosmos 2058 2.9 00:18:00 51° SE 00:18:40 60° E 00:22:35 10° NNE
Cosmos 44 2.9 00:19:22 48° SW 00:20:33 90° NNE 00:24:58 10° NE
Cosmos 2228 4.0 00:21:27 10° NNW 00:25:08 31° W 00:25:54 29° WSW
Cosmos 1680 Rocket 3.5 00:25:22 10° NNW 00:30:39 79° ENE 00:33:13 31° SSE
RESURS DK-1 3.6 00:28:34 10° NNW 00:32:19 37° NE 00:34:57 17° ESE
Cosmos 1697 Rocket 4.4 00:32:50 17° SE 00:35:10 22° E 00:39:21 10° NE
H-2A R/B 2.9 00:34:14 32° ESE 00:35:29 47° ENE 00:39:08 10° N
Cosmos 1656 3.9 00:33:45 36° S 00:35:51 57° ESE 00:41:19 10° NE
SeaSat 1 4.0 00:33:25 10° ESE 00:37:47 33° NE 00:42:10 10° NNW
Cosmos 923 Rocket 4.0 00:32:55 10° NNW 00:38:04 68° WSW 00:39:56 39° S
Cosmos 2227 Rocket 3.9 00:35:50 10° NNW 00:40:51 31° NE 00:45:51 10° ESE
Cosmos 1400 Rocket 3.2 00:39:25 10° NNW 00:43:05 42° W 00:43:29 40° WSW
BlueWalker 3 3.6 00:41:50 10° WNW 00:45:12 33° N 00:48:32 10° ENE
Cosmos 1356 Rocket 4.4 00:41:50 10° N 00:45:35 38° ENE 00:47:28 24° SE
Cosmos 1602 3.6 00:46:12 49° ESE 00:46:26 50° E 00:49:35 10° NNE
EO 1 Delta rocket 4.5 00:46:45 33° SW 00:48:02 41° W 00:52:26 10° NNW
Cosmos 1937 Rocket 3.7 00:47:15 33° SW 00:49:30 64° WNW 00:54:36 10° NNE
ISS -2.4 00:50:02 10° WNW 00:53:13 40° N 00:56:26 10° ENE
H-2A R/B 4.4 00:53:35 10° ENE 00:55:47 14° E 00:58:01 10° ESE
Cosmos 2315 Rocket 4.0 00:51:30 10° NNW 00:57:52 77° W 01:01:14 30° S
Cosmos 1441 Rocket 4.0 00:58:03 31° SE 00:58:51 36° E 01:02:06 10° NNE
Landsat 4 3.0 01:03:33 70° E 01:03:40 71° ENE 01:06:29 10° N
Cosmos 1933 3.1 01:02:01 10° N 01:05:54 89° E 01:07:02 45° S
DELTA 2 R/B (1) 4.4 01:07:24 28° SSE 01:07:31 28° SSE 01:12:13 10° ESE
DNEPR-1 R/B 3.9 01:07:42 10° NW 01:11:41 40° WSW 01:12:14 38° SW
Meteor 2-3 Rocket 3.9 01:10:11 29° S 01:13:16 72° E 01:19:05 10° NNE
CZ-2C R/B 2.8 01:11:03 32° S 01:13:33 61° W 01:19:04 10° NNW
Cosmos 1606 Rocket 4.4 01:18:06 10° NNW 01:22:03 35° W 01:23:12 30° SW
Cosmos 1048 Rocket 4.2 01:17:06 10° NNW 01:22:29 76° ENE 01:26:52 16° SSE
Cosmos 2058 Rocket 3.0 01:18:52 10° N 01:23:18 88° E 01:25:27 30° S
Cosmos 1315 Rocket 2.7 01:19:42 10° N 01:23:31 78° ENE 01:25:07 33° SSE
Cosmos 1655 Rocket 4.2 01:20:19 28° SSW 01:23:51 65° WNW 01:30:14 10° N
IDEFIX/ARIANE 42P 2.9 01:24:06 10° NNE 01:29:16 60° ESE 01:32:15 25° S
Lacrosse 5 rocket 3.9 01:31:23 10° NW 01:34:31 22° N 01:37:39 10° ENE
CZ-2C R/B 3.5 01:32:06 10° N 01:36:44 45° WNW 01:39:09 25° SW
Cosmos 2360 4.3 01:36:32 26° SW 01:39:51 72° WNW 01:45:35 10° NNE
Meteor 1-26 Rocket 4.1 01:35:08 10° N 01:40:34 86° E 01:44:35 18° SSE
CZ-4C R/B 3.6 01:37:24 10° W 01:41:35 30° NNW 01:46:47 10° NNE
Cosmos 1867 4.3 01:40:43 17° WSW 01:44:44 46° NW 01:50:01 10° NNE
ADEOS II 3.8 01:40:58 10° NE 01:45:15 25° E 01:49:30 10° SSE
Cosmos 2263 Rocket 3.2 01:41:22 10° NNW 01:46:51 47° NE 01:52:14 10° SE
Gbstr 26 Del rocket 4.2 01:44:43 10° WNW 01:51:00 84° NNE 01:58:29 10° ESE
Cosmos 2297 Rocket 2.6 01:48:14 10° NW 01:53:34 43° WSW 01:56:44 22° SSW
CZ-2D R/B 3.0 01:51:47 10° NNE 01:56:47 42° E 02:01:07 13° SSE
MOZ.5/SAFIR/RUBIN 5/SL-8 3.7 01:56:35 19° S 01:59:51 76° WSW 02:04:32 10° NNW
BREEZE-M DEB (TANK) 1.3 01:59:33 10° WNW 02:02:10 69° SSW 02:04:23 10° ESE
Meteor 2-6 Rocket 4.4 02:00:59 10° N 02:06:40 77° ENE 02:12:30 10° SSE
Cosmos 1758 Rocket 3.5 02:05:25 23° S 02:08:08 87° WNW 02:12:34 10° N
Cosmos 1602 Rocket 3.8 02:05:12 18° S 02:08:14 65° E 02:12:31 10° NNE
Cosmos 1980 Rocket 2.7 02:05:14 17° S 02:09:20 53° ESE 02:14:47 10° NE
RESURS DK-1 3.5 02:06:26 10° NW 02:09:35 23° WSW 02:10:15 22° WSW
H-2A R/B 4.1 02:09:35 14° W 02:10:06 15° W 02:12:15 10° NW
Tiangong -0.4 02:10:35 20° SSE 02:10:37 20° SSE 02:13:06 10° ESE
Resurs 1-4 Rocket 2.5 02:05:51 10° NNE 02:11:07 61° ESE 02:15:35 14° S
Nadezhda 1 Rocket 4.0 02:06:52 10° N 02:13:11 82° W 02:19:10 11° S
Cosmos 1626 Rocket 3.7 02:12:06 23° SSW 02:14:40 59° WNW 02:19:00 10° N
SeaSat 1 2.8 02:11:34 17° S 02:15:03 43° WSW 02:19:44 10° NW
Cosmos 1745 Rocket 4.1 02:12:25 16° S 02:17:42 88° E 02:24:07 10° N
NOSS 7 (A) 4.5 02:15:40 10° NW 02:18:33 64° SW 02:21:47 10° SSE
Cosmos 1697 Rocket 2.9 02:14:32 19° SW 02:18:35 66° WNW 02:24:14 10° NNE
H-2A R/B 4.3 02:16:44 10° NE 02:20:00 17° E 02:23:15 10° SE
Cosmos 614 Rocket 3.9 02:18:01 10° NNW 02:23:06 88° WSW 02:28:09 10° SSE
BlueWalker 3 2.2 02:19:40 10° WNW 02:23:19 67° NNE 02:26:56 10° ESE
FENGYUN 3A 3.7 02:18:17 10° NNE 02:23:41 79° WNW 02:27:58 17° SSW
Cosmos 2227 Rocket 2.4 02:19:39 10° NW 02:25:09 52° WSW 02:30:38 10° S
MSX 4.2 02:21:25 10° N 02:26:59 53° WNW 02:31:23 16° SW
Cosmos-2242 4.1 02:23:50 10° NNW 02:27:22 27° W 02:29:26 18° SW
ISS -3.9 02:26:48 10° WNW 02:30:11 85° SSW 02:33:32 10° ESE
Okean 1 3.2 02:27:48 10° NNW 02:31:29 60° W 02:34:27 15° S
H-2A R/B 2.1 02:27:28 10° N 02:31:35 63° WNW 02:34:41 17° SSW
Cosmos 1709 Rocket 4.1 02:25:56 11° S 02:32:02 84° E 02:38:24 10° N
Cosmos 1932 4.5 02:31:45 16° SW 02:36:52 88° SE 02:43:17 10° NE
ATLAS 2AS CENTAUR R/B 2.9 02:30:55 10° NW 02:37:44 76° NE 02:44:26 10° SE
USA 290 2.6 02:35:25 10° NNW 02:38:43 66° ENE 02:41:59 10° SSE
Okean 1-7 Rocket 3.6 02:35:08 15° SSW 02:38:49 79° W 02:43:20 10° N
SAR-Lupe-3 4.5 02:36:12 10° SSE 02:39:06 62° ENE 02:42:01 10° N
NPP 4.4 02:38:14 10° N 02:43:16 41° WNW 02:47:39 13° SW
ALOS 2.3 02:39:52 10° NNE 02:44:28 76° ESE 02:49:01 10° S
Cosmos 2221 2.6 02:44:00 10° NNW 02:48:11 55° W 02:52:20 10° S
Cosmos 1743 3.3 02:46:02 10° S 02:49:16 46° E 02:52:29 10° NNE
Cosmos 1125 Rocket 4.1 02:46:24 14° SW 02:50:47 47° WNW 02:55:54 10° NNE
Cosmos 192 4.4 02:46:47 14° SSW 02:51:06 78° WNW 02:56:03 10° NNE
DELTA 2 R/B (1) 4.2 02:48:05 10° WSW 02:53:10 37° S 02:58:16 10° ESE
Cosmos 2298 Rocket 4.1 02:48:25 11° SSW 02:53:30 81° ESE 02:58:51 10° NNE
Cosmos 2151 3.1 02:51:45 13° SSW 02:55:27 60° WNW 02:59:35 10° N
Cosmos 1953 Rocket 3.8 02:57:51 10° S 03:02:12 70° E 03:06:33 10° NNE
Cosmos 2322 Rocket 4.4 02:59:46 10° SE 03:03:46 20° E 03:07:48 10° NE
Cosmos 2369 3.8 03:01:10 10° SSW 03:06:50 89° ESE 03:12:31 10° NNE
Meteor 1-19 Rocket 4.2 03:01:33 10° NNW 03:06:58 71° W 03:12:28 10° S
IDEFIX/ARIANE 42P 4.1 03:04:22 10° N 03:08:18 22° WNW 03:12:14 10° WSW
Cosmos 2333 Rocket 4.2 03:04:24 10° SSE 03:08:48 23° ESE 03:13:12 10° NE
Lacrosse 5 rocket 2.2 03:08:45 10° NW 03:12:36 51° NNE 03:16:25 10° ESE
Meteor 1-20 Rocket 4.4 03:09:10 10° SSW 03:15:00 76° WNW 03:20:50 10° N
Cosmos 2082 3.7 03:09:33 10° NNW 03:15:11 64° WSW 03:20:45 10° SSE
Meteor 1-28 Rocket 3.2 03:12:00 10° SSE 03:15:20 70° ENE 03:18:42 10° N
USA 234 3.9 03:10:41 10° ENE 03:16:58 48° SE 03:23:14 10° SSW
Cosmos 1707 3.2 03:17:16 10° N 03:20:29 51° ENE 03:23:41 10° SSE
Cosmos 921 Rocket 3.4 03:19:19 10° NNW 03:23:34 45° WSW 03:27:43 10° S
Cosmos 2219 3.6 03:18:19 10° NW 03:23:39 42° WSW 03:28:55 10° S
CZ-3 R/B 4.3 02:52:12 10° WSW 03:24:45 39° SSW 03:34:57 10° SE
ADEOS II 2.5 03:20:01 10° N 03:25:04 50° WNW 03:30:06 10° SW
Cosmos 1733 2.7 03:23:51 10° S 03:26:49 73° E 03:29:50 10° NNE
Envisat 3.3 03:22:13 10° N 03:27:11 55° WNW 03:32:06 10° SSW
Cosmos 1825 Rocket 4.2 03:23:11 10° SW 03:27:13 39° WNW 03:31:19 10° N
SL-16 R/B 3.0 03:22:46 10° S 03:28:13 51° ESE 03:33:43 10° NE
Cosmos 1238 Rocket 4.4 03:23:44 10° NNW 03:28:22 32° W 03:32:55 10° SSW
SL-16 R/B 2.6 03:23:47 10° S 03:30:00 68° WSW 03:36:17 10° NNW
Cosmos 2263 Rocket 3.0 03:25:38 10° NW 03:30:33 31° WSW 03:35:24 10° SSW
